Weather History for KMAF - December, 2012

Change the Weather History Date:

Sunday, December 2, 2012

  Actual Average Record
Temperature  
Mean Temperature 60 °F 47 °F  
Max Temperature 77 °F 61 °F 83 °F (2005)
Min Temperature 43 °F 33 °F 17 °F (1985)
Degree Days  
Heating Degree Days 5 18  
Month to date heating degree days 7 36  
Since 1 July heating degree days 366 515  
Growing Degree Days 10 (Base 50)    
Moisture  
Dew Point 49 °F    
Average Humidity 61    
Maximum Humidity 100    
Minimum Humidity 22    
Precipitation  
Precipitation 0.00 in 0.02 in 0.21 in (1936)
Month to date precipitation 0.00 0.04  
Year to date precipitation 12.72 14.04  
Snow  
Snow 0.00 in - - ()
Month to date snowfall 0.0  
Since 1 July snowfall 0.0  
Snow Depth 0.00 in    
Sea Level Pressure  
Sea Level Pressure 30.01 in    
Wind  
Wind Speed 10 mph (SSW)    
Max Wind Speed 20 mph    
Max Gust Speed 25 mph    
Visibility 5 miles    
Events Fog    
T = Trace of Precipitation, MM = Missing Value Source: NWS Daily Summary

Daily Weather History Graph

Daily Weather History Graph

Search for Another Location

Airport or City:

Trip Planner

Search our weather history database for the weather conditions in past years. The results will help you decide how hot, cold, wet, or windy it might be!

Date:

Astronomy

Dec. 02, 2012 Rise Set
Actual Time 7:32 AM CST 5:44 PM CST
Civil Twilight 7:05 AM CST 6:10 PM CST
Nautical Twilight 6:35 AM CST 6:41 PM CST
Astronomical Twilight 6:06 AM CST 7:10 PM CST
Moon 9:27 PM CST (12/2) 10:28 AM CST (12/2)
Length of Visible Light 11h 04m
Length of Day
10h 11m
Waning Gibbous, 85% of the Moon is Illuminated
Dec 2
Waning Gibbous
Dec 6
Last Quarter
Dec 13
New
Dec 19
First Quarter
Dec 28
Full

Hourly Weather History & Observations

Time (CST) Temp. Windchill Dew Point Humidity Pressure Visibility Wind Dir Wind Speed Gust Speed Precip Events Conditions
12:53 AM 59.0 °F - 55.0 °F 87% 29.97 in 9.0 mi SSW 8.1 mph - N/A   Clear
1:53 AM 57.0 °F - 54.0 °F 89% 29.96 in 8.0 mi South 6.9 mph - N/A   Clear
2:53 AM 55.9 °F - 54.0 °F 93% 29.96 in 8.0 mi SSW 8.1 mph - N/A   Clear
3:53 AM 53.1 °F - 52.0 °F 96% 29.96 in 5.0 mi SSW 4.6 mph - N/A   Clear
4:33 AM 50.0 °F - 50.0 °F 100% 30.07 in 1.8 mi SSE 4.6 mph - N/A   Clear
4:37 AM 50.0 °F - 48.2 °F 94% 30.07 in 0.8 mi SE 3.5 mph - N/A   Mist
4:53 AM 48.9 °F - 48.0 °F 97% 29.98 in 0.2 mi South 6.9 mph - N/A Fog Fog
5:04 AM 50.0 °F - 50.0 °F 100% 30.07 in 0.8 mi South 6.9 mph - N/A   Mist
5:06 AM 51.8 °F - 51.8 °F 100% 30.07 in 1.2 mi South 5.8 mph - N/A   Partly Cloudy
5:11 AM 51.8 °F - 51.8 °F 100% 30.07 in 3.0 mi South 3.5 mph - N/A   Clear
5:17 AM 50.0 °F - 50.0 °F 100% 30.07 in 1.8 mi Calm Calm - N/A   Clear
5:25 AM 48.2 °F - 48.2 °F 100% 30.07 in 0.2 mi SSW 3.5 mph - N/A Fog Fog
5:33 AM 51.8 °F - 50.0 °F 94% 30.07 in 1.0 mi SSW 4.6 mph - N/A   Clear
5:37 AM 51.8 °F - 50.0 °F 94% 30.07 in 3.0 mi South 4.6 mph - N/A   Clear
5:53 AM 52.0 °F - 51.1 °F 97% 29.98 in 4.0 mi SW 8.1 mph - N/A   Clear
6:11 AM 50.0 °F - 50.0 °F 100% 30.07 in 1.8 mi SW 5.8 mph - N/A   Clear
6:21 AM 48.2 °F - 48.2 °F 100% 30.08 in 0.5 mi SSW 3.5 mph - N/A Fog Fog
6:29 AM 46.4 °F - 46.4 °F 100% 30.08 in 0.2 mi Calm Calm - N/A Fog Fog
6:37 AM 48.2 °F - 48.2 °F 100% 30.08 in 0.2 mi SSW 3.5 mph - N/A Fog Fog
6:53 AM 44.1 °F 41.5 °F 44.1 °F 100% 30.01 in 0.2 mi SW 4.6 mph - N/A Fog Fog
7:53 AM 45.0 °F 42.6 °F 45.0 °F 100% 30.04 in 0.2 mi SSW 4.6 mph - N/A Fog Fog
8:32 AM 51.8 °F - 51.8 °F 100% 30.11 in 1.0 mi SW 5.8 mph - N/A   Mist
8:42 AM 53.6 °F - 51.8 °F 94% 30.11 in 4.0 mi SW 5.8 mph - N/A   Scattered Clouds
8:53 AM 55.0 °F - 55.0 °F 100% 30.04 in 4.0 mi SW 6.9 mph - N/A   Clear
9:53 AM 60.1 °F - 55.9 °F 86% 30.04 in 9.0 mi SSW 11.5 mph - N/A   Clear
10:53 AM 66.0 °F - 51.1 °F 59% 30.04 in 10.0 mi SSW 10.4 mph - N/A   Clear
11:53 AM 70.0 °F - 48.9 °F 47% 30.02 in 10.0 mi SW 9.2 mph - N/A   Clear
12:53 PM 73.0 °F - 45.0 °F 37% 29.97 in 10.0 mi SW 11.5 mph - N/A   Clear
1:53 PM 75.9 °F - 42.1 °F 30% 29.94 in 10.0 mi SW 11.5 mph - N/A   Clear
2:53 PM 77.0 °F - 35.6 °F 22% 30.02 in 10.0 mi SW 11.5 mph - N/A   Clear
3:53 PM 77.0 °F - 37.0 °F 24% 29.91 in 10.0 mi SSW 11.5 mph - N/A   Clear
4:53 PM 77.0 °F - 37.0 °F 24% 29.91 in 10.0 mi South 11.5 mph - N/A   Clear
5:53 PM 72.0 °F - 46.0 °F 40% 29.91 in 10.0 mi South 10.4 mph - N/A   Clear
6:53 PM 66.9 °F - 48.9 °F 52% 29.94 in 10.0 mi South 12.7 mph - N/A   Clear
7:53 PM 64.0 °F - 52.0 °F 65% 29.94 in 10.0 mi South 12.7 mph - N/A   Clear
8:53 PM 63.0 °F - 55.0 °F 75% 29.93 in 8.0 mi South 19.6 mph - N/A   Clear
9:53 PM 60.1 °F - 55.9 °F 86% 29.94 in 8.0 mi South 16.1 mph - N/A   Clear
10:53 PM 57.9 °F - 55.0 °F 90% 29.93 in 5.0 mi South 10.4 mph - N/A   Clear
11:53 PM 55.9 °F - 54.0 °F 93% 29.92 in 4.0 mi South 5.8 mph - N/A   Clear